Location: Alafon
(8.4500°N, 4.2333°E)
Time: 22:07:18
(UTC+00:00)

deb Explorer IX - Pass Details

Date: 29 July 2021
Orbit: 545 x 1091 km, 38.8° (Epoch: 19 September)

Event Time Altitude Azimuth Distance (km) Brightness Sun altitude
Rises 22:12:14 0° 293° (WNW) 3,880 ? -53.9°
Enters shadow 22:14:19 - 288° (WNW) 3,222 ? -54.2°
Reaches altitude 10° 22:15:18 10° 284° (WNW) 2,930 - -54.4°
Maximum altitude 22:21:37 33° 223° (SW) 1,713 - -55.4°
Drops below altitude 10° 22:27:40 10° 162° (SSE) 2,786 - -56.3°
Sets 22:30:32 0° 152° (SSE) 3,666 - -56.7°
